Tracking 19219 objects as of 19-Jul-2018
HD Live streaming from Space Station
objects crossing your sky now

FENGYUN 1C DEB

Track FENGYUN 1C DEB now!
10-day predictions


NORAD ID: 31066
Int'l Code: 1999-025BFL
Perigee: 474.1 km
Apogee: 735.8 km
Inclination: 99.0 °
Period: 96.6 minutes
Semi major axis: 6975 km
RCS: 0.002 m2 (small)
Launch date: May 10, 1999
Source: People's Republic of China (PRC)
Launch site: Taiyaun Space Center, China (TSC)

Note: This is SATELLITE DEBRIS
aabbcc
Your satellite tracking list
Your tracking list is empty




NASA's NSSDC Master Catalog

Two Line Element Set (TLE):
1 31066U 99025BFL 18199.19676497 +.00001368 +00000-0 +10835-3 0  9996
2 31066 099.0283 349.7733 0187584 186.6664 173.2052 14.90048850611316
Source of the keplerian elements: AFSPC